Location: M?digepalle
(16.1753°N, 80.3496°E)
Time: 09:07:53
(UTC+00:00)

CZ-3 R/B - Pass Details

Date: 29 October 2020
Orbit: 373 x 10236 km, 28.4° (Epoch: 27 November)

Event Time Altitude Azimuth Distance (km) Brightness Sun altitude
Rises 21:35:33 0° 259° (W) 15,075 7.2 -43.4°
Enters shadow 21:36:46 - 259° (W) 14,962 7.1 -43.1°
Exits shadow 22:28:38 38° 285° (WNW) 6,334 5.0 -30.7°
Maximum altitude 22:40:59 57° 341° (NNW) 3,471 4.0 -27.7°
Drops below altitude 10° 22:51:16 10° 60° (ENE) 3,639 5.1 -25.3°
Sets 22:53:14 0° 66° (ENE) 4,152 5.7 -24.8°
